Wind_Speed
21 21 21 21 22 23 24 24 25 24 24 25 27 27 27 28 28 29 30 30 31 31 32 33 34 34 35 36 37 38 38 39 40 41 42 42 44 45 46 47 48 49 50 50
24 25 25 25 24 25 26 26 27 27 27 27 29 29 30 30 31 31 31 32 33 33 34 34 35 35 36 37 38 38 39 40 41 42 43 44 45 46 47 48 48 49 50 51
28 28 29 28 26 27 28 27 28 29 28 30 31 31 32 32 33 33 34 34 34 35 35 35 36 36 37 38 39 39 40 42 42 44 44 45 46 47 47 48 49 49 50 50
32 31 32 30 30 30 30 30 31 31 31 32 33 33 34 34 35 35 35 36 36 36 37 37 37 38 39 39 40 41 42 43 43 45 46 46 47 48 48 49 49 50 50 51
34 34 34 32 32 32 32 32 32 33 33 34 35 35 35 36 36 36 36 37 37 38 38 38 39 40 40 41 42 42 43 44 45 46 47 48 48 49 49 50 51 51 52 53
36 37 37 35 34 34 35 35 34 35 35 35 36 36 36 37 37 37 37 37 38 39 39 40 41 41 42 43 44 44 45 46 46 47 48 49 49 50 51 52 52 53 53 54
39 39 39 38 37 37 37 37 37 37 37 37 37 37 37 38 38 38 38 39 40 40 41 42 43 43 44 45 45 46 47 47 48 49 49 50 50 51 52 53 53 54 54 55
41 41 40 39 39 39 39 39 39 39 39 39 39 39 39 40 40 40 41 41 41 42 43 44 44 45 45 46 47 48 48 48 49 49 50 50 51 52 53 54 54 55 56 57
43 43 42 41 41 41 41 42 41 41 41 41 41 41 42 42 42 42 42 43 43 44 44 44 45 46 46 47 48 48 48 48 49 50 50 51 52 52 53 55 56 57 57 58
44 43 43 43 43 43 43 43 43 43 43 43 43 43 43 43 43 44 44 44 45 45 45 45 45 46 46 47 47 48 48 49 49 50 51 51 52 53 54 55 57 58 58 59
46 45 45 45 45 44 45 45 46 45 45 45 45 45 45 45 45 45 45 45 46 46 46 46 46 46 46 46 47 47 48 49 50 50 51 52 53 54 55 56 57 58 58 59
47 47 48 47 47 47 47 47 47 47 46 46 46 46 46 46 46 46 46 45 45 45 45 45 45 45 45 46 47 48 48 49 50 51 51 52 53 53 53 54 55 56 56 57
48 48 49 49 48 48 48 48 48 47 47 47 46 46 46 46 46 46 45 45 45 44 44 44 44 45 45 46 47 48 49 50 51 51 51 52 52 52 52 52 52 53 54 54
48 49 49 48 48 48 48 47 47 47 47 47 46 46 46 45 45 45 45 44 44 44 44 45 45 46 47 48 48 49 49 50 50 51 51 51 51 51 51 51 51 51 51 52
48 49 48 47 47 46 47 46 46 46 46 46 46 46 46 45 45 44 44 44 44 45 45 46 46 47 48 48 48 48 49 49 49 49 49 49 50 50 50 51 51 50 50 49
48 48 48 47 45 45 45 45 45 45 45 44 44 44 44 44 44 44 44 44 45 45 46 46 46 47 48 48 48 48 48 48 48 48 48 48 49 49 49 50 50 49 48 47
45 45 45 44 44 44 44 44 44 43 43 42 43 43 43 43 42 42 43 43 44 44 45 46 46 46 46 47 47 48 47 47 47 47 47 48 48 48 48 48 47 46 46 45
42 42 42 42 42 41 41 41 41 41 41 41 42 42 42 41 41 42 43 43 43 44 44 44 45 45 46 46 47 46 46 46 46 46 47 47 47 47 47 46 46 45 43 42
38 39 39 40 40 40 40 40 40 40 41 41 41 41 41 41 41 41 42 42 42 42 42 43 44 45 45 45 45 44 44 45 46 47 47 47 46 46 45 45 44 43 42 40
38 38 38 39 39 39 39 39 39 39 39 39 39 39 39 39 39 40 40 40 41 42 42 43 43 43 43 43 43 44 44 45 46 46 47 46 45 45 45 44 42 41 40 39
38 38 38 37 37 37 37 37 37 36 36 35 35 35 36 37 37 38 39 40 40 41 41 42 43 43 43 43 44 44 44 45 45 45 45 45 44 44 43 41 40 40 39 38
36 35 35 35 35 35 34 34 35 35 35 34 34 34 35 36 37 38 39 40 40 41 42 42 43 43 43 43 43 43 43 44 44 45 44 43 43 41 40 39 38 37 37 36
34 34 33 33 33 34 34 34 34 35 35 35 36 37 37 38 38 38 39 39 40 41 41 42 42 43 43 43 42 42 42 43 44 44 43 41 40 39 38 36 36 36 35 35
33 33 34 34 34 34 35 35 35 36 36 37 38 38 39 39 39 40 40 41 41 41 41 42 42 42 42 42 41 41 42 42 42 41 39 38 38 37 36 36 35 34 34 33
35 35 35 35 35 35 35 35 36 36 37 37 38 39 40 40 41 41 41 41 41 42 42 42 42 41 41 41 41 41 41 41 40 39 38 37 36 35 35 34 34 33 32 30
36 36 36 37 37 37 38 38 38 39 39 39 40 41 42 43 42 42 41 41 42 42 41 41 40 40 40 40 40 40 40 39 38 37 36 35 34 33 32 31 30 29 27 26
36 36 36 37 38 39 39 39 39 40 40 41 41 41 41 41 41 40 40 40 40 40 40 39 39 39 39 39 39 38 37 36 35 34 32 31 30 28 27 26 25 24 23 22
Wind_Direction
290 289 287 284 281 279 279 279 279 279 279 280 281 281 280 280 279 278 278 277 277 278 277 277 277 278 279 279 279 279 279 280 280 281 281 281 281 281 282 282 283 284 284 284
287 287 285 283 283 281 280 280 280 280 280 280 280 280 281 280 280 280 280 278 278 279 279 278 278 278 279 280 280 280 280 281 281 282 282 283 283 283 284 284 285 285 286 286
285 284 284 284 285 281 280 280 280 280 280 279 279 280 280 280 280 280 279 279 278 278 279 279 280 280 280 281 281 281 281 281 282 282 283 284 284 284 284 285 286 287 288 288
284 283 283 286 284 283 283 282 281 281 280 280 280 279 279 279 279 279 279 278 278 279 280 280 281 281 282 282 283 283 282 282 283 284 284 285 285 285 286 286 287 288 288 289
284 284 284 284 285 284 283 282 282 282 282 281 281 280 280 279 278 278 279 279 279 279 280 281 281 282 283 283 283 283 283 283 284 285 285 285 285 286 286 287 287 288 289 289
283 283 284 285 284 283 283 282 282 282 281 281 280 280 280 280 279 279 279 279 279 280 281 282 282 282 283 283 284 284 284 284 285 285 286 286 286 286 287 287 288 289 290 291
283 283 284 285 284 283 282 283 282 281 281 281 281 280 280 279 279 279 280 280 280 281 281 282 282 283 283 284 284 284 284 285 285 286 286 286 287 287 288 288 289 289 290 291
282 282 283 283 282 282 282 281 281 281 281 281 281 281 280 280 281 281 281 281 281 281 282 282 282 283 283 284 284 284 285 285 286 286 286 287 287 288 288 289 289 289 290 291
279 280 281 281 280 281 280 280 280 280 280 280 280 281 282 281 281 281 282 282 282 282 282 283 284 284 285 285 285 286 286 287 287 287 287 288 288 289 290 290 290 290 291 292
277 278 278 279 278 278 279 279 279 279 280 280 280 281 282 282 281 281 282 282 282 282 282 283 284 285 285 286 286 287 287 288 288 288 289 289 290 290 291 291 291 292 293 294
276 277 276 276 276 276 276 277 278 278 279 280 281 281 281 281 282 281 281 281 281 282 282 283 284 284 285 286 287 287 288 289 290 290 290 291 291 292 292 292 293 294 295 295
276 276 275 276 276 276 276 277 278 279 279 280 281 281 281 282 282 282 283 283 282 282 282 283 283 284 285 286 287 288 289 290 291 291 291 292 292 293 293 294 295 295 296 296
275 275 275 276 276 276 277 277 278 279 279 279 280 281 281 281 282 282 282 282 282 282 283 283 284 285 286 287 288 290 291 291 291 292 292 293 293 294 294 295 296 296 297 297
275 275 275 276 276 276 277 277 277 278 278 279 280 281 281 281 281 281 281 281 281 282 282 283 284 286 287 288 289 290 291 292 292 292 293 293 293 294 295 296 297 297 298 298
274 274 275 276 276 276 277 277 277 278 278 279 280 281 281 281 281 281 281 280 280 281 282 283 285 287 288 288 289 291 291 292 293 293 293 294 295 296 297 298 299 299 299 298
274 275 276 276 276 277 277 277 277 277 278 279 280 280 281 281 281 280 280 281 281 281 283 284 285 286 287 289 290 291 292 293 293 294 295 295 296 297 298 299 299 299 300 299
275 275 275 275 276 276 276 277 277 277 278 278 279 279 280 280 280 280 280 281 282 283 284 285 286 287 288 289 290 291 292 293 294 294 295 296 296 297 298 299 299 300 300 300
275 274 274 275 276 275 276 277 278 278 278 278 279 279 280 280 280 280 280 281 282 283 284 285 286 287 289 290 292 292 293 293 294 295 296 297 297 297 298 299 300 300 300 300
276 275 275 276 277 277 278 278 278 278 278 279 279 279 280 281 281 281 282 283 283 284 285 286 287 288 290 291 292 293 293 293 294 295 296 297 297 297 298 299 299 300 300 300
277 277 278 278 279 279 279 279 280 280 280 279 279 279 280 281 282 283 283 283 284 285 286 287 288 289 290 291 292 292 293 294 295 296 296 297 297 297 298 298 299 299 299 299
278 278 278 278 278 279 279 279 279 279 280 281 281 282 282 283 283 284 284 285 285 286 287 288 288 289 290 291 292 293 294 295 295 296 296 296 296 297 297 297 297 298 298 298
278 278 277 277 277 278 279 279 279 279 280 281 282 283 284 284 285 285 286 286 286 287 287 288 289 290 291 292 293 293 294 295 295 296 297 297 297 297 297 296 297 297 297 298
279 278 277 277 278 278 279 279 280 280 281 281 282 283 284 285 286 287 288 288 288 288 288 290 290 291 291 293 293 294 294 295 296 297 297 297 297 297 297 296 296 297 297 298
279 279 279 279 280 280 280 280 280 281 281 281 281 282 283 285 286 288 289 289 289 289 289 290 290 291 292 292 293 294 295 296 297 297 296 296 297 297 297 296 296 296 297 297
279 279 280 280 280 281 281 281 281 282 281 281 282 283 284 285 287 289 289 289 289 289 289 290 290 291 291 292 293 294 295 295 296 296 297 296 297 296 296 297 296 295 295 295
279 279 279 279 279 280 281 281 281 282 282 282 283 284 285 286 287 288 289 290 290 289 290 290 290 291 291 292 293 294 295 295 296 296 296 296 296 297 298 299 298 296 296 295
279 279 279 279 280 281 282 283 283 284 284 285 285 285 285 286 287 288 289 290 290 290 289 289 289 290 292 292 293 293 294 295 296 296 296 296 296 297 298 299 299 298 298 297
Height
5689 5688 5687 5687 5687 5686 5686 5686 5686 5686 5685 5685 5683 5682 5681 5681 5680 5679 5678 5677 5676 5675 5674 5673 5672 5671 5670 5669 5668 5666 5665 5664 5662 5660 5658 5657 5655 5654 5652 5650 5648 5646 5643 5641
5684 5683 5682 5682 5682 5681 5680 5680 5679 5679 5679 5678 5676 5675 5674 5673 5672 5671 5670 5669 5668 5667 5666 5664 5663 5662 5661 5660 5658 5656 5655 5653 5651 5650 5648 5646 5644 5642 5640 5637 5635 5633 5630 5627
5677 5676 5675 5676 5677 5675 5674 5674 5673 5672 5673 5670 5669 5668 5667 5665 5664 5663 5661 5660 5659 5658 5656 5655 5654 5652 5651 5649 5647 5646 5644 5642 5640 5638 5636 5634 5632 5630 5627 5625 5622 5619 5616 5613
5669 5669 5668 5672 5668 5667 5666 5666 5665 5663 5663 5662 5660 5659 5658 5656 5655 5654 5652 5651 5649 5648 5647 5645 5644 5642 5640 5638 5637 5635 5633 5631 5629 5626 5624 5622 5620 5617 5614 5612 5609 5606 5603 5599
5660 5658 5659 5662 5660 5659 5657 5657 5656 5655 5653 5652 5650 5649 5648 5647 5645 5644 5642 5641 5640 5638 5637 5635 5633 5631 5630 5628 5626 5623 5621 5619 5617 5614 5612 5609 5606 5604 5601 5598 5595 5592 5588 5585
5651 5649 5650 5653 5651 5649 5648 5647 5647 5645 5644 5642 5641 5640 5639 5637 5635 5634 5632 5631 5629 5628 5626 5624 5622 5620 5618 5616 5614 5611 5609 5607 5604 5601 5599 5596 5593 5590 5587 5584 5581 5577 5574 5570
5641 5639 5640 5642 5641 5639 5639 5639 5636 5634 5633 5632 5630 5629 5628 5626 5624 5623 5621 5620 5618 5617 5615 5613 5611 5608 5606 5604 5602 5599 5597 5594 5591 5588 5585 5583 5580 5576 5573 5570 5566 5563 5560 5556
5631 5629 5632 5631 5629 5628 5627 5626 5624 5623 5622 5621 5620 5618 5617 5615 5614 5612 5610 5609 5607 5605 5603 5601 5599 5596 5594 5592 5589 5586 5584 5581 5578 5575 5572 5569 5566 5562 5559 5555 5551 5548 5544 5540
5621 5621 5620 5618 5617 5616 5614 5614 5613 5612 5611 5609 5608 5607 5605 5604 5602 5601 5599 5597 5595 5593 5591 5589 5586 5584 5581 5579 5576 5573 5571 5568 5565 5561 5558 5555 5551 5548 5544 5540 5536 5532 5527 5523
5608 5608 5607 5606 5604 5603 5602 5601 5600 5599 5598 5597 5596 5595 5593 5592 5590 5588 5586 5584 5582 5580 5578 5576 5574 5571 5568 5565 5562 5560 5557 5554 5551 5547 5544 5540 5537 5533 5529 5524 5520 5515 5511 5506
5595 5595 5594 5593 5592 5591 5590 5588 5587 5586 5585 5584 5583 5582 5580 5579 5577 5575 5573 5571 5569 5567 5565 5563 5560 5558 5555 5552 5549 5546 5543 5540 5537 5533 5530 5526 5522 5518 5513 5509 5503 5498 5494 5488
5581 5581 5579 5580 5578 5577 5576 5575 5574 5573 5572 5571 5569 5568 5566 5565 5563 5561 5560 5558 5556 5554 5551 5549 5547 5544 5542 5539 5536 5533 5530 5526 5523 5519 5515 5511 5507 5503 5498 5493 5488 5482 5477 5471
5566 5566 5565 5565 5564 5563 5562 5561 5560 5559 5558 5557 5555 5554 5552 5551 5549 5547 5546 5544 5542 5540 5538 5536 5533 5531 5528 5525 5522 5519 5516 5512 5508 5504 5500 5496 5492 5488 5484 5480 5474 5468 5462 5456
5552 5551 5551 5551 5549 5549 5547 5546 5546 5545 5544 5542 5541 5540 5538 5537 5535 5533 5532 5530 5528 5527 5525 5522 5520 5518 5515 5512 5509 5505 5502 5498 5494 5490 5486 5481 5477 5472 5468 5464 5460 5456 5450 5443
5538 5536 5536 5536 5536 5535 5533 5532 5532 5531 5530 5528 5527 5525 5524 5522 5521 5519 5518 5516 5514 5513 5511 5508 5506 5504 5500 5498 5494 5491 5487 5483 5479 5475 5471 5467 5463 5458 5454 5449 5445 5440 5436 5430
5523 5523 5522 5522 5522 5521 5520 5519 5518 5517 5516 5515 5513 5512 5510 5509 5507 5506 5504 5502 5501 5499 5497 5494 5492 5489 5486 5484 5480 5477 5473 5469 5465 5462 5458 5453 5449 5445 5440 5436 5431 5426 5421 5416
5509 5509 5509 5508 5508 5507 5506 5505 5504 5503 5502 5501 5500 5498 5497 5495 5494 5492 5491 5489 5487 5485 5483 5480 5478 5475 5472 5469 5466 5463 5460 5456 5452 5448 5444 5440 5436 5431 5427 5422 5418 5413 5408 5403
5496 5496 5495 5495 5494 5494 5493 5492 5491 5490 5489 5488 5487 5485 5484 5482 5481 5479 5478 5476 5474 5472 5469 5467 5464 5462 5459 5456 5453 5450 5446 5443 5439 5435 5431 5427 5423 5418 5414 5409 5405 5400 5396 5391
5484 5483 5483 5482 5481 5481 5480 5479 5478 5477 5476 5475 5474 5473 5471 5470 5468 5466 5465 5463 5461 5459 5457 5454 5451 5448 5446 5442 5439 5436 5433 5430 5426 5422 5418 5414 5410 5405 5401 5396 5392 5388 5383 5379
5473 5472 5471 5470 5469 5469 5468 5467 5466 5465 5464 5462 5461 5460 5459 5457 5455 5453 5452 5450 5448 5446 5444 5441 5438 5436 5433 5430 5426 5423 5420 5416 5413 5409 5405 5401 5396 5392 5388 5384 5380 5376 5372 5368
5461 5461 5460 5459 5458 5457 5456 5455 5454 5453 5452 5450 5449 5448 5446 5445 5443 5441 5440 5438 5436 5433 5431 5428 5426 5423 5420 5417 5414 5410 5407 5403 5399 5395 5391 5387 5383 5380 5375 5371 5368 5364 5360 5357
5450 5449 5449 5448 5447 5446 5445 5444 5443 5442 5440 5439 5438 5436 5435 5434 5432 5430 5428 5425 5423 5421 5418 5415 5413 5410 5407 5404 5401 5398 5394 5390 5386 5382 5378 5374 5370 5367 5363 5359 5356 5353 5349 5346
5440 5439 5438 5437 5436 5435 5434 5433 5432 5430 5429 5428 5426 5425 5423 5422 5420 5418 5416 5414 5410 5408 5405 5403 5400 5397 5394 5391 5388 5385 5381 5377 5374 5370 5366 5362 5358 5354 5351 5348 5345 5342 5339 5336
5429 5428 5427 5426 5425 5424 5423 5422 5421 5419 5418 5416 5415 5413 5411 5410 5408 5406 5403 5401 5398 5396 5393 5390 5387 5384 5381 5378 5375 5372 5369 5365 5361 5357 5353 5350 5347 5343 5340 5337 5334 5331 5328 5325
5418 5418 5417 5416 5415 5413 5412 5411 5409 5408 5406 5405 5403 5401 5399 5397 5395 5393 5391 5388 5386 5383 5380 5377 5374 5371 5369 5366 5363 5360 5356 5353 5349 5345 5342 5339 5336 5332 5329 5326 5323 5321 5318 5315
5407 5406 5405 5404 5403 5401 5400 5399 5397 5396 5394 5392 5391 5389 5387 5384 5382 5380 5378 5375 5373 5370 5367 5365 5362 5359 5356 5353 5350 5347 5344 5341 5337 5334 5331 5328 5325 5322 5319 5316 5313 5311 5308 5306
5396 5395 5393 5392 5391 5389 5388 5386 5384 5383 5381 5379 5378 5376 5373 5371 5369 5367 5365 5362 5360 5357 5355 5352 5349 5347 5344 5341 5339 5336 5332 5329 5326 5323 5321 5318 5315 5312 5310 5307 5305 5303 5301 5299